Location: Mentone
(34.5413°N, 85.5351°W)
Time: 01:41:58
(UTC-05:00)

Vanguard 1 - Visible Passes

Search period start: 17 April 2014 00:00
Search period end: 27 April 2014 00:00
Orbit: 648 x 3839 km, 34.3° (Epoch: 16 April)

Date Brightness Start Highest point End Pass type
(mag) Time Alt. Az. Time Alt. Az. Time Alt. Az.
17 Apr 13.6 20:41:50 10° W 20:56:28 22° SW 21:08:19 10° S visible
18 Apr 13.8 21:07:51 10° W 21:17:27 15° SW 21:25:48 10° SSW visible
20 Apr 13.7 19:19:27 10° W 19:37:41 30° SW 19:53:24 10° S visible
21 Apr 13.9 19:43:30 10° W 19:58:54 23° SW 20:12:29 10° S visible
22 Apr 14.1 20:09:19 10° W 20:20:05 15° SW 20:29:58 10° SSW visible
